Other Public Products
Issued by NWS Grand Forks, ND

Home | Current Version | Previous Version | Text Only | Print | Product List | Glossary On
Versions: 1 2 3 4 5 6 7 8 9 10 11 12 13 14 15 16 17 18 19 20 21 22 23 24 25 26 27 28 29 30 31 32 33 34 35 36 37 38 39 40 41 42 43 44 45 46 47 48 49 50
000
FPUS83 KFGF 292010
OPUFGF
PRAIRIE TO PINES WEATHER ROUNDUP
NATIONAL WEATHER SERVICE EASTERN NORTH DAKOTA/GRAND FORKS ND
300 PM CDT FRI APR 29 2016

 **SATELLITE DATA USED TO AUGMENT SKY COVER AT AUTOMATED STATIONS**
 *****  WEATHER ACROSS EASTERN NORTH DAKOTA  *****

CITY           SKY/WX    TMP DP  RH WIND       PRES   REMARKS
GRAND FORKS    MOSUNNY   63  32  31 NE14G23   30.14F
GRAND FORKS AF SUNNY     63  30  29 E14G24    30.14F
GRAND CITY NWS NOT AVBL
BUXTON         NOT AVBL
DEVILS LAKE    SUNNY     58  28  32 E14G21    30.16F
FARGO          SUNNY     63  31  30 E7G24     30.11R
WAHPETON ARPT  CLEAR     59  32  36 E9        30.11F
$$

 *****  WEATHER ACROSS CENTRAL AND WESTERN NORTH DAKOTA  *****

CITY           SKY/WX    TMP DP  RH WIND       PRES   REMARKS
JAMESTOWN      SUNNY     60  32  34 E14G21    30.12R
BISMARCK       MOSUNNY   60  34  37 SE14      30.12R
MINOT          SUNNY     64  19  17 E8        30.13F
MINOT AFB      SUNNY     60  24  25 E10G17    30.12F
GARRISON         N/A     60  24  25 E12G21    30.12S
WILLISTON      CLOUDY    57  28  33 SE13      30.13S
DICKINSON      CLOUDY    55  29  36 SE13G21   30.08F
HETTINGER      CLOUDY    53  31  42 E12       30.09F
$$

 *****  OTHER OBSERVATIONS NORTHEAST NORTH DAKOTA  *****

CITY           SKY/WX    TMP DP  RH WIND       PRES   REMARKS
WALHALLA       FAIR      57  32  38 N9G17     30.20F
LANGDON        FAIR      59  28  31 E13       30.19F
CAVALIER       FAIR      59  32  36 E9        30.18F
GRAFTON        FAIR      59  32  36 NE8G15    30.18F
CANDO          FAIR      59  23  25 E9G25     30.19F
FORT TOTTEN      N/A     59  28  30 NE8       29.95S
ROLLA          FAIR      57  23  26 E8        30.18F
RUGBY          FAIR      59  27  29 E14       30.15F
 ***** THE ABOVE OBSERVATIONS ARE NON NWS ARE NOT QUALITY
        CONTROLLED AND MAY MIS-REPORT RAIN FOR SNOW...
$$

 *****  OTHER OBSERVATIONS SOUTHEAST NORTH DAKOTA *****

CITY           SKY/WX    TMP DP  RH WIND       PRES   REMARKS
COOPERSTOWN    NOT AVBL
VALLEY CITY    FAIR      59  34  38 E12G24    30.15R
OAKES            N/A    N/A N/A N/A MISG        N/A
GWINNER        FAIR      61  36  39 NE13G20   30.11S
BUFFALO        NOT AVBL
WYNDMERE         N/A     61  37  41 E7          N/A
 ***** THE ABOVE OBSERVATIONS ARE NON NWS ARE NOT QUALITY
       CONTROLLED AND MAY MIS-REPORT RAIN FOR SNOW...
$$

  *****  WEATHER ACROSS NORTHERN MINNESOTA  *****

CITY           SKY/WX    TMP DP  RH WIND       PRES   REMARKS
FLAG ISLAND    SUNNY     52  30  43 N13       30.21S
WARROAD        SUNNY     54  34  47 E9        30.22F
ROSEAU         SUNNY     57  36  44 E15G21    30.20F
HALLOCK        SUNNY     63  27  25 NE13G18   30.18F
THF RVR FALLS  SUNNY     57  30  35 NE15G23   30.16F
HALSTAD        NOT AVBL
FOSSTON        SUNNY     57  30  35 NE13G21   30.13F
BAUDETTE       MOSUNNY   58  32  37 N14       30.19F
WASKISH        SUNNY     59  34  38 NE12      30.16F
CROOKSTON      SUNNY     61  30  31 E12G22    30.14F
$$
  *****  WEATHER ACROSS CENTRAL AND WEST MINNESOTA  *****

CITY           SKY/WX    TMP DP  RH WIND       PRES   REMARKS
BEMIDJI        SUNNY     58  32  38 NE9G16    30.12F
PARK RAPIDS    SUNNY     60  29  30 N9        30.10F
WADENA         SUNNY     59  34  38 NE10G16   30.10F
DETROIT LAKES  SUNNY     61  32  33 E5        30.11R
MOORHEAD       SUNNY     63  32  31 NE13G20   30.12R
FERGUS FALLS   SUNNY     59  34  38 E7        30.08F
ELBOW LAKE     FAIR      57  35  43 E8        30.11S
MORRIS MN      MOSUNNY   57  39  51 E8G16     30.11F
STAPLES        SUNNY     61  28  29 E3        30.10F
WHEATON        MOSUNNY   61  39  44 E8        30.13F
$$
  *****  WEATHER ELSEWHERE ACROSS MINNESOTA  *****

CITY           SKY/WX    TMP DP  RH WIND       PRES   REMARKS
DULUTH         MOSUNNY   51  30  44 E18       30.16F
INTRNTL FALLS  SUNNY     55  31  39 VRB7G16   30.19F
ELY            CLOUDY    48  28  46 NE8       30.19S
CLOQUET        SUNNY     52  27  37 SE8G20    30.15F
BRAINERD       SUNNY     59  31  34 E10G18    30.11F
HIBBING        MOSUNNY   53  29  39 E5        30.15F
ALEXANDRIA     CLOUDY    59  34  39 E9G18     30.11F
SAINT CLOUD    MOSUNNY   56  32  40 CALM      30.12R
MINNEAPOLIS    MOSUNNY   56  36  47 NE12      30.11F
$$

  *****  WEATHER ACROSS SOUTH DAKOTA  *****

CITY           SKY/WX    TMP DP  RH WIND       PRES   REMARKS
SIOUX FALLS    CLOUDY    50  39  66 SE14      30.13S
BROOKINGS      CLOUDY    48  38  68 E13       30.12S
WATERTOWN      PTSUNNY   53  36  52 E14G21    30.11S
HURON          CLOUDY    52  39  61 SE14G22   30.12R
SISSETON         N/A     59  37  44 SE9       30.11F
ABERDEEN       PTSUNNY   59  36  42 E12       30.11S
MITCHELL       CLOUDY    50  40  68 SE20      30.13R
PIERRE         CLOUDY    50  37  61 E13G24    30.10S
MOBRIDGE       PTSUNNY   61  38  42 SE13      30.07S
RAPID CITY     CLOUDY    44  33  65 E12       30.08S
$$

  *****  SOME WEATHER IN NEARBY STATES *****

CITY           SKY/WX    TMP DP  RH WIND       PRES   REMARKS
GLASGOW MT     CLOUDY    56  30  37 E16G24    30.06F
GREAT FALLS MT CLOUDY    50  30  46 NE6       29.93F
CHEYENNE WY    LGT SNOW  33  32  96 E8        29.94S VSB 3/4
SCOTTSBLUFF NE CLOUDY    46  34  62 NE14      29.97F
OMAHA NE       CLOUDY    48  41  76 NE14      30.05F
DES MOINES IA  CLOUDY    50  41  71 NE9       30.08F
DAVENPORT IA   CLOUDY    51  41  68 E8        30.11R
CHICAGO IL     CLOUDY    50  39  66 NE9       30.09F
EAU CLAIRE WI  PTSUNNY   55  37  50 E9        30.11F
LA CROSSE WI   CLOUDY    55  39  54 N8        30.12S
$$

  *****  SOME NATIONAL WEATHER *****

CITY           SKY/WX    TMP DP  RH WIND       PRES   REMARKS
LA GUARDIA NY  CLOUDY    55  37  50 E12G21    30.09R
RALEIGH NC     MOSUNNY   76  60  57 E5        29.97F
ATLANTA GA     CLOUDY    86  49  27 S3        29.95F
NEW ORLEANS LA MOSUNNY   85  70  60 S20G25    29.89S
OKLAHOMA CITY  PTSUNNY   70  65  84 SE14      29.63F
ALBUQUERQUE NM PTSUNNY   56  26  31 NW20G28   29.83S
SALT LAKE CITY PTSUNNY   56  34  43 NW8       29.87F
LOS ANGELES CA MOSUNNY   66  49  54 W13G18    30.02F
BOISE ID       MOSUNNY   61  38  42 NW13G22   29.87F
SEATTLE WA     PTSUNNY   56  43  61 VRB5      30.14S
$$

*** WEATHER ACROSS MANITOBA...SASKATCHEWAN AND ONTARIO ***
                ***ONTARIO***

CITY           SKY/WX    TMP DP  RH WIND       PRES   REMARKS
GERALDTON      CLOUDY    43  30  61 N9        30.21S
THUNDER BAY    CLOUDY    54  30  40 SE10      30.18R
SIOUX LOOKOUT  MOSUNNY   50  32  50 VRB6      30.23F
TORONTO        NOT AVBL
BIG TROUT LK   CLOUDY    45  18  33 N12G18    30.29S
PICKLE LAKE    PTSUNNY   46  25  42 N8        30.25S
DRYDEN         MOSUNNY   54  28  37 NE8       30.21F
KENORA         MOSUNNY   55  27  33 E10       30.21F
$$
                *** MANITOBA***

CITY           SKY/WX    TMP DP  RH WIND       PRES   REMARKS
BRANDON        MOSUNNY   59  18  20 E12G22    30.21F
DAUPHIN        SUNNY     59  21  23 NE10      30.26F
ISLAND LAKE    MOSUNNY   52  14  22 SW8       30.32F
PILOT MOUND      N/A     59  18  20 NE10G17     N/A
THE PAS        CLOUDY    61  19  20 SE9G21    30.27F
THOMPSON       PTSUNNY   55  21  26 S5        30.28F
WINNIPEG       MOSUNNY   61  28  29 NE12      30.22F
LYNN LAKE      SUNNY     64  23  20 SW13      30.19F
CHURCHILL      SUNNY     32  21  64 E12       30.45S WCI  23
GILLAM         PTSUNNY   46  23  39 NE9       30.36F
$$
                ***SASKATCHEWAN***

CITY           SKY/WX    TMP DP  RH WIND       PRES   REMARKS
ESTEVAN        PTSUNNY   61  14  16 E9G18     30.14F
KINDERSLEY     MOSUNNY   63  18  17 SE21G28   30.05F
LLOYDMINSTER   MOSUNNY   63  21  20 SE17G28   30.05S
PRINCE ALBERT  PTSUNNY   63  19  19 S13G22    30.18S
REGINA         MOSUNNY   61  12  15 SE17G26   30.14F
YORKTON        SUNNY     61  18  18 SE12G21   30.21F
N. BATTLEFORD  SUNNY     64  18  16 SE21G41   30.11F   C1F1C2F2C3F3C4F4C5F5C6F6C7F7C8F8C9F9CaFaCbFbCcFcCdFdCe!



USA.gov is the U.S. government's official web portal to all federal, state and local government web resources and services.